This is the latest recevied weather packets stored in our database for station/object JE9BHE-13. If no packets are shown the sender has not sent any weather packets the latest 10 day(s).
| Time | Temp. | Humidity | Pressure | Rain* | Wind** | Luminosity | Snow |
|---|---|---|---|---|---|---|---|
| 1777960626 | 21.11° C | 34% | 1020.6 hPa | 0 mm | - | - | - |
| 1777960446 | 21.11° C | 37% | 1020.5 hPa | 0 mm | - | - | - |
| 1777960267 | 20.56° C | 35% | 1020.6 hPa | 0 mm | - | - | - |
| 1777959006 | 21.11° C | 37% | 1020.7 hPa | 0 mm | - | - | - |
| 1777958647 | 20.56° C | 36% | 1020.7 hPa | 0 mm | - | - | - |
| 1777957927 | 21.11° C | 36% | 1020.7 hPa | 0 mm | - | - | - |
| 1777956126 | 21.67° C | 40% | 1020.9 hPa | 0 mm | - | - | - |
| 1777955766 | 21.11° C | 31% | 1021 hPa | 0 mm | - | - | - |
| 1777951266 | 20.56° C | 33% | 1022.1 hPa | 0 mm | - | - | - |
| 1777948566 | 20° C | 33% | 1022.5 hPa | 0 mm | - | - | - |
| 1777948026 | 20.56° C | 35% | 1022.7 hPa | 0 mm | - | - | - |
| 1777946587 | 20.56° C | 40% | 1022.9 hPa | 0 mm | - | - | - |
| 1777946407 | 20.56° C | 40% | 1023.3 hPa | 0 mm | - | - | - |
| 1777946046 | 20° C | 38% | 1023 hPa | 0 mm | - | - | - |
| 1777942986 | 19.44° C | 38% | 1023.4 hPa | 0 mm | - | - | - |
| 1777942807 | 19.44° C | 39% | 1023.3 hPa | 0 mm | - | - | - |
| 1777941727 | 18.33° C | 30% | 1023.2 hPa | 0 mm | - | - | - |
| 1777941546 | 18.33° C | 37% | 1023.4 hPa | 0 mm | - | - | - |
| 1777941187 | 17.78° C | 40% | 1023.4 hPa | 0 mm | - | - | - |
| 1777940287 | 16.67° C | 45% | 1023.2 hPa | 0 mm | - | - | - |
| 1777937587 | 13.33° C | 61% | 1022.9 hPa | 0 mm | - | - | - |
| 1777936507 | 12.78° C | 64% | 1023.2 hPa | 0 mm | - | - | - |
| 1777935606 | 11.67° C | 66% | 1022.8 hPa | 0 mm | - | - | - |
| 1777935067 | 11.67° C | 68% | 1022.8 hPa | 0 mm | - | - | - |
| 1777933986 | 11.11° C | 70% | 1022.8 hPa | 0 mm | - | - | - |
* Rain latest hour (hover to see other rain measurements)
** Current wind speed in m/s (hover to see current wind gust speed)